FW6610 Weather Reports


Display with metric or nautical units.
time (UTC)temp
F
wind
direction
speed
MPH
gust
MPH
rain 1hr
in
rain 24hr
in
rain mn
in
humidity
%
barometer
mb
20260509122529 41 0 0.0 0.0 0.01 0.12 0.12 95 1014.6
20260509122029 41 0 0.0 0.0 0.01 0.12 0.12 95 1014.7
20260509121540 40 0 0.0 0.0 0.01 0.12 0.12 95 1014.9
20260509121029 40 0 0.0 0.0 0.01 0.12 0.12 95 1014.9
20260509120529 40 0 0.0 1.0 0.01 0.12 0.12 95 1014.9
20260509120058 40 0 0.0 1.0 0.01 0.12 0.12 95 1015.1
20260509115528 40 327 0.0 0.0 0.02 0.12 0.12 95 1015.0
20260509115029 40 0 0.0 0.0 0.02 0.12 0.12 95 1014.9
20260509114544 40 0 0.0 0.0 0.02 0.12 0.12 94 1015.0
20260509114031 40 0 0.0 1.0 0.02 0.12 0.12 94 1014.9
20260509113529 40 0 0.0 1.0 0.03 0.12 0.12 94 1015.1
20260509113043 39 0 0.0 1.0 0.03 0.11 0.11 94 1015.2
20260509112529 39 0 0.0 0.0 0.03 0.11 0.11 94 1015.1
20260509112029 39 0 0.0 0.0 0.03 0.11 0.11 94 1015.2
20260509111542 39 0 0.0 0.0 0.04 0.11 0.11 94 1015.1
20260509111029 39 0 0.0 0.0 0.05 0.11 0.11 94 1015.3
20260509110527 39 0 0.0 0.0 0.05 0.11 0.11 94 1015.4
20260509110044 39 0 0.0 0.0 0.06 0.11 0.11 94 1015.4
20260509105526 39 0 0.0 0.0 0.05 0.10 0.10 94 1015.4
20260509105026 39 0 0.0 0.0 0.06 0.10 0.10 94 1015.4
20260509104538 39 0 0.0 0.0 0.06 0.10 0.10 94 1015.6
20260509104026 39 0 0.0 0.0 0.06 0.09 0.09 94 1015.5
20260509103526 39 0 0.0 0.0 0.06 0.09 0.09 94 1015.5
20260509103038 39 0 0.0 1.0 0.05 0.08 0.08 94 1015.4
20260509102527 39 0 0.0 1.0 0.06 0.08 0.08 94 1015.5
20260509102029 39 262 0.0 1.0 0.06 0.08 0.08 94 1015.2
20260509101545 39 0 0.0 1.0 0.05 0.07 0.07 94 1015.2
20260509101031 39 0 0.0 1.0 0.05 0.06 0.06 94 1015.0
20260509100529 39 0 0.0 0.0 0.05 0.06 0.06 93 1015.1
20260509100045 39 0 0.0 0.0 0.05 0.05 0.05 93 1014.9
20260509095530 39 0 0.0 0.0 0.05 0.05 0.05 93 1015.2
20260509095026 39 0 0.0 0.0 0.04 0.04 0.04 93 1015.1
20260509094542 39 0 0.0 0.0 0.04 0.04 0.04 93 1015.1
20260509094026 39 0 0.0 0.0 0.03 0.03 0.03 93 1015.2
20260509093526 39 0 0.0 0.0 0.03 0.03 0.03 92 1015.1
20260509093038 39 0 0.0 0.0 0.03 0.03 0.03 92 1014.9
20260509092526 39 0 0.0 0.0 0.02 0.02 0.02 92 1014.8
20260509092026 39 0 0.0 0.0 0.02 0.02 0.02 91 1014.7
20260509091602 39 0 0.0 0.0 0.02 0.02 0.02 91 1014.6
20260509091028 39 0 0.0 0.0 0.01 0.01 0.01 90 1014.8
20260509090525 39 0 0.0 0.0 0.01 0.01 0.01 89 1014.9
20260509090046 39 0 0.0 0.0 0.00 0.00 0.00 88 1014.8
20260509085525 39 0 0.0 0.0 0.00 0.00 0.00 87 1014.9
20260509085025 39 0 0.0 0.0 0.00 0.00 0.00 86 1014.8
20260509084546 39 0 0.0 0.0 0.00 0.00 0.00 86 1014.8
20260509084030 39 0 0.0 0.0 0.00 0.00 0.00 86 1014.8
20260509083526 39 0 0.0 0.0 0.00 0.00 0.00 86 1014.6
20260509083041 39 0 0.0 0.0 0.00 0.00 0.00 86 1014.6
20260509082526 39 0 0.0 0.0 0.00 0.00 0.00 87 1014.4
20260509082026 39 0 0.0 0.0 0.00 0.00 0.00 87 1014.5
20260509081543 39 0 0.0 0.0 0.00 0.00 0.00 87 1014.4
20260509081026 38 0 0.0 0.0 0.00 0.00 0.00 87 1014.2
20260509080526 38 0 0.0 0.0 0.00 0.00 0.00 88 1014.2
20260509080040 38 0 0.0 0.0 0.00 0.00 0.00 89 1014.2
20260509075530 38 0 0.0 0.0 0.00 0.00 0.00 90 1014.3
20260509075026 38 0 0.0 0.0 0.00 0.00 0.00 90 1014.2
20260509074552 38 0 0.0 0.0 0.00 0.00 0.00 90 1014.4
20260509074026 37 0 0.0 0.0 0.00 0.00 0.00 91 1014.3
20260509073526 37 0 0.0 0.0 0.00 0.00 0.00 91 1014.2
20260509073111 37 0 0.0 0.0 0.00 0.00 0.00 91 1014.3
20260509072526 37 0 0.0 0.0 0.00 0.00 0.00 91 1014.5
20260509072029 36 0 0.0 0.0 0.00 0.00 0.00 91 1014.2
20260509071543 36 0 0.0 0.0 0.00 0.00 0.00 91 1014.4
20260509071029 36 0 0.0 0.0 0.00 0.00 0.00 91 1014.3
20260509070526 36 0 0.0 0.0 0.00 0.00 0.00 91 1014.3
20260509070136 36 0 0.0 0.0 0.00 0.00 0.00 91 1014.2
20260509065526 36 0 0.0 0.0 0.00 0.00 0.00 91 1014.3
20260509065026 36 0 0.0 0.0 0.00 0.00 0.00 90 1014.3
20260509064538 36 0 0.0 0.0 0.00 0.00 0.00 90 1014.2
20260509064030 36 0 0.0 0.0 0.00 0.00 0.00 90 1014.1
20260509063526 36 0 0.0 0.0 0.00 0.00 0.00 90 1014.2
20260509063037 37 0 0.0 0.0 0.00 0.00 0.00 90 1014.4
20260509062529 36 0 0.0 0.0 0.00 0.00 0.00 90 1014.4
20260509062030 36 0 0.0 0.0 0.00 0.00 0.00 90 1014.4
20260509061542 36 0 0.0 0.0 0.00 0.00 0.00 90 1014.5
20260509061026 36 0 0.0 0.0 0.00 0.00 0.00 90 1014.6
20260509060529 36 0 0.0 0.0 0.00 0.00 0.00 89 1014.6
20260509060057 36 0 0.0 0.0 0.00 0.00 0.00 89 1014.5
20260509055526 36 0 0.0 0.0 0.00 0.00 0.00 89 1014.6
20260509055033 36 0 0.0 0.0 0.00 0.00 0.00 89 1014.6
20260509054547 36 0 0.0 0.0 0.00 0.00 0.00 88 1014.4
20260509054026 37 0 0.0 0.0 0.00 0.00 0.00 88 1014.5
20260509053529 37 0 0.0 1.0 0.00 0.00 0.00 87 1014.5
20260509053040 37 0 0.0 1.0 0.00 0.00 0.00 88 1014.6
20260509052525 37 0 0.0 0.0 0.00 0.00 0.00 87 1014.4
20260509052027 37 0 0.0 0.0 0.00 0.00 0.00 87 1014.1
20260509051535 37 0 0.0 0.0 0.00 0.00 0.00 87 1014.0
20260509051026 38 152 0.0 0.0 0.00 0.00 0.00 86 1014.2
20260509050529 38 0 0.0 0.0 0.00 0.00 0.00 86 1014.3
20260509050042 38 0 0.0 0.0 0.00 0.00 0.00 85 1014.2
20260509045525 39 0 0.0 0.0 0.00 0.00 0.00 84 1014.1
20260509045026 39 0 0.0 0.0 0.00 0.00 0.00 84 1014.3
20260509044555 39 0 0.0 0.0 0.00 0.00 0.00 84 1014.1
20260509044029 40 0 0.0 0.0 0.00 0.00 0.00 84 1014.0
20260509043526 40 0 0.0 0.0 0.00 0.00 0.00 84 1014.2
20260509043038 40 0 0.0 0.0 0.00 0.00 0.00 84 1014.1
20260509042526 40 0 0.0 2.0 0.00 0.00 0.00 84 1014.2
20260509042026 40 0 0.0 2.0 0.00 0.00 0.00 84 1014.3
20260509041546 40 154 0.0 2.0 0.00 0.00 0.00 83 1014.1
20260509041025 40 0 0.0 1.0 0.00 0.00 0.00 85 1014.0
20260509040526 39 336 0.0 1.0 0.00 0.00 0.00 87 1014.1
20260509040104 39 0 0.0 0.0 0.00 0.00 0.00 87 1014.1
20260509035526 39 0 0.0 0.0 0.00 0.00 0.00 87 1014.0
20260509035029 39 0 0.0 0.0 0.00 0.00 0.00 87 1014.1
20260509034548 39 0 0.0 0.0 0.00 0.00 0.00 87 1014.0
20260509034029 39 0 0.0 0.0 0.00 0.00 0.00 87 1013.9
20260509033526 38 0 0.0 0.0 0.00 0.00 0.00 87 1013.8
20260509033045 38 0 0.0 0.0 0.00 0.00 0.00 86 1013.9
20260509032527 38 0 0.0 0.0 0.00 0.00 0.00 87 1013.9
20260509032026 38 0 0.0 0.0 0.00 0.00 0.00 86 1013.9
20260509031544 38 0 0.0 0.0 0.00 0.00 0.00 85 1014.0
20260509031026 38 0 0.0 0.0 0.00 0.00 0.00 84 1014.0
20260509030526 38 0 0.0 0.0 0.00 0.00 0.00 84 1014.0
20260509030038 39 0 0.0 0.0 0.00 0.00 0.00 84 1013.8
20260509025525 39 0 0.0 0.0 0.00 0.00 0.00 84 1013.8
20260509025026 39 0 0.0 0.0 0.00 0.00 0.00 83 1013.8
20260509024536 39 0 0.0 0.0 0.00 0.00 0.00 83 1013.7
20260509024029 39 0 0.0 0.0 0.00 0.00 0.00 83 1013.7
20260509023526 39 0 0.0 0.0 0.00 0.00 0.00 83 1013.6
20260509023044 40 0 0.0 1.0 0.00 0.00 0.00 83 1013.6
20260509022525 40 0 0.0 1.0 0.00 0.00 0.00 82 1013.6
20260509022026 40 0 0.0 0.0 0.00 0.00 0.00 82 1013.6
20260509021544 40 0 0.0 0.0 0.00 0.00 0.00 82 1013.8
20260509021032 41 0 0.0 0.0 0.00 0.00 0.00 81 1013.7
20260509020526 41 0 0.0 0.0 0.00 0.00 0.00 81 1013.5
20260509020042 41 0 0.0 0.0 0.00 0.00 0.00 80 1013.6
20260509015526 41 0 0.0 0.0 0.00 0.00 0.00 79 1013.6
20260509015027 41 0 0.0 0.0 0.00 0.00 0.00 79 1013.4
20260509014541 41 0 0.0 0.0 0.00 0.00 0.00 78 1013.4
20260509014029 42 0 0.0 1.0 0.00 0.00 0.00 77 1013.3
20260509013529 42 0 0.0 1.0 0.00 0.00 0.00 77 1013.2
20260509013044 42 0 0.0 1.0 0.00 0.00 0.00 76 1013.1
20260509012529 43 0 0.0 1.0 0.00 0.00 0.00 76 1013.2
20260509012029 43 0 0.0 1.0 0.00 0.00 0.00 75 1013.0
20260509011557 43 0 0.0 1.0 0.00 0.00 0.00 74 1012.9
20260509011028 43 0 0.0 1.0 0.00 0.00 0.00 74 1012.8
20260509010526 43 0 0.0 0.0 0.00 0.00 0.00 72 1012.6
20260509010048 44 0 0.0 0.0 0.00 0.00 0.00 72 1012.7
20260509005529 44 0 0.0 0.0 0.00 0.00 0.00 72 1012.6
20260509005028 44 0 0.0 0.0 0.00 0.00 0.00 70 1012.5
20260509004553 45 0 0.0 0.0 0.00 0.00 0.00 71 1012.4
20260509004028 45 0 0.0 0.0 0.00 0.00 0.00 71 1012.5
20260509003531 46 0 0.0 0.0 0.00 0.00 0.00 70 1012.3
20260509003043 46 0 0.0 0.0 0.00 0.00 0.00 70 1012.3
20260509002531 47 312 0.0 0.0 0.00 0.00 0.00 69 1012.2
20260509002028 47 0 0.0 0.0 0.00 0.00 0.00 69 1012.1
20260509001541 47 0 0.0 0.0 0.00 0.00 0.00 66 1012.2
20260509001029 48 0 0.0 4.0 0.00 0.00 0.00 66 1012.2
20260509000529 48 0 0.0 4.0 0.00 0.00 0.00 66 1011.9
20260509000035 48 117 0.0 1.0 0.00 0.00 0.00 66 1012.1
20260508235530 49 0 0.0 1.0 0.00 0.00 0.00 64 1011.9
20260508235028 49 0 0.0 1.0 0.00 0.00 0.00 64 1011.9
20260508234544 50 39 0.0 1.0 0.00 0.00 0.00 63 1011.7
20260508234029 51 0 0.0 1.0 0.00 0.00 0.00 61 1011.7
20260508233529 51 0 0.0 1.0 0.00 0.00 0.00 59 1011.6
20260508233044 52 0 0.0 1.0 0.00 0.00 0.00 56 1011.5
20260508232528 53 0 0.0 2.0 0.00 0.00 0.00 56 1011.4
20260508232028 53 0 0.0 2.0 0.00 0.00 0.00 53 1011.4
20260508231542 53 338 0.0 9.0 0.00 0.00 0.00 53 1011.5
20260508231029 53 354 0.0 9.0 0.00 0.00 0.00 53 1011.4
20260508230529 54 326 1.0 9.0 0.00 0.00 0.00 51 1011.3
20260508230042 54 321 2.0 10.0 0.00 0.00 0.00 51 1011.4
20260508225528 54 332 2.0 12.0 0.00 0.00 0.00 50 1011.4
20260508225032 55 229 4.0 12.0 0.00 0.00 0.00 49 1011.3
20260508224541 56 291 2.0 7.0 0.00 0.00 0.00 50 1011.3
20260508224029 56 352 2.0 9.0 0.00 0.00 0.00 50 1011.3
20260508223529 56 309 3.0 9.0 0.00 0.00 0.00 49 1011.3
20260508223042 57 304 1.0 13.0 0.00 0.00 0.00 49 1011.1
20260508222529 56 343 1.0 13.0 0.00 0.00 0.00 50 1011.1
20260508222029 56 345 3.0 10.0 0.00 0.00 0.00 48 1011.2
20260508221545 57 322 4.0 10.0 0.00 0.00 0.00 47 1011.0
20260508221032 57 345 1.0 13.0 0.00 0.00 0.00 49 1010.9
20260508220526 56 314 2.0 13.0 0.00 0.00 0.00 49 1011.1
20260508220046 56 341 5.0 13.0 0.00 0.00 0.00 48 1011.1
20260508215528 57 251 4.0 6.0 0.00 0.00 0.00 49 1010.8
20260508215031 57 87 1.0 5.0 0.00 0.00 0.00 51 1010.8
20260508214553 57 319 2.0 5.0 0.00 0.00 0.00 51 1010.9
20260508214029 57 314 1.0 5.0 0.00 0.00 0.00 50 1010.9
20260508213528 56 152 1.0 6.0 0.00 0.00 0.00 54 1011.1
20260508213038 55 122 2.0 8.0 0.00 0.00 0.00 51 1011.1
20260508212529 56 314 3.0 8.0 0.00 0.00 0.00 50 1010.9
20260508212033 57 203 4.0 8.0 0.00 0.00 0.00 51 1011.0
20260508211537 57 319 3.0 7.0 0.00 0.00 0.00 49 1011.0
20260508211030 57 4 3.0 8.0 0.00 0.00 0.00 49 1010.9
20260508210530 57 340 3.0 9.0 0.00 0.00 0.00 48 1010.8
20260508210041 58 350 2.0 11.0 0.00 0.00 0.00 49 1010.6
20260508205528 57 158 2.0 11.0 0.00 0.00 0.00 47 1010.8
20260508205029 57 62 3.0 9.0 0.00 0.00 0.00 50 1010.7
20260508204546 57 161 2.0 8.0 0.00 0.00 0.00 53 1010.7
20260508204035 57 141 1.0 8.0 0.00 0.00 0.00 52 1010.6
20260508203528 56 0 0.0 5.0 0.00 0.00 0.00 54 1010.8
20260508203047 56 225 0.0 5.0 0.00 0.00 0.00 53 1010.9
20260508202529 56 291 1.0 6.0 0.00 0.00 0.00 56 1010.8
20260508202028 55 294 2.0 6.0 0.00 0.00 0.00 56 1010.9
20260508201543 56 353 2.0 6.0 0.00 0.00 0.00 52 1010.9
20260508201031 57 84 1.0 6.0 0.00 0.00 0.00 54 1011.0
20260508200529 57 292 2.0 6.0 0.00 0.00 0.00 58 1011.1
20260508200043 56 175 2.0 6.0 0.00 0.00 0.00 55 1010.8
20260508195529 56 0 2.0 6.0 0.00 0.00 0.00 55 1010.9
20260508195029 56 167 1.0 6.0 0.00 0.00 0.00 59 1010.9
20260508194555 56 105 2.0 9.0 0.00 0.00 0.00 54 1011.1
20260508194028 55 155 2.0 9.0 0.00 0.00 0.00 60 1011.2
20260508193529 55 22 2.0 5.0 0.00 0.00 0.00 56 1011.2
20260508193100 54 279 2.0 5.0 0.00 0.00 0.00 61 1011.2
20260508192529 54 198 1.0 6.0 0.00 0.00 0.00 56 1011.3
20260508192029 53 238 1.0 9.0 0.00 0.00 0.00 54 1011.2
20260508191543 53 276 4.0 9.0 0.00 0.00 0.00 54 1011.2
20260508191028 53 325 2.0 7.0 0.00 0.00 0.00 54 1011.1
20260508190529 54 328 2.0 7.0 0.00 0.00 0.00 53 1011.2
20260508190045 54 162 1.0 5.0 0.00 0.00 0.00 53 1011.0
20260508185529 54 199 2.0 8.0 0.00 0.00 0.00 52 1011.0
20260508185028 54 200 2.0 8.0 0.00 0.00 0.00 54 1011.0
20260508184555 54 181 3.0 8.0 0.00 0.00 0.00 52 1010.9
20260508184029 54 222 2.0 7.0 0.00 0.00 0.00 52 1010.9
20260508183531 54 208 4.0 7.0 0.00 0.00 0.00 50 1010.8
20260508183042 55 302 1.0 7.0 0.00 0.00 0.00 47 1010.6
20260508182529 55 295 1.0 7.0 0.00 0.00 0.00 47 1010.6
20260508182031 55 267 2.0 7.0 0.00 0.00 0.00 45 1010.7
20260508181555 55 285 1.0 7.0 0.00 0.00 0.00 44 1010.6
20260508181029 55 352 2.0 7.0 0.00 0.00 0.00 43 1010.7
20260508180529 55 26 1.0 10.0 0.00 0.00 0.00 46 1010.6
20260508180046 55 0 3.0 11.0 0.00 0.00 0.00 44 1010.6
20260508175529 55 331 4.0 16.0 0.00 0.00 0.00 45 1010.6
20260508175030 55 271 6.0 16.0 0.00 0.00 0.00 44 1010.6
20260508174541 56 294 4.0 14.0 0.00 0.00 0.00 46 1010.6
20260508174028 56 149 6.0 14.0 0.00 0.00 0.00 44 1010.7
20260508173528 56 327 3.0 11.0 0.00 0.00 0.00 45 1010.6
20260508173042 56 3 3.0 11.0 0.00 0.00 0.00 47 1010.6
20260508172529 56 319 3.0 9.0 0.00 0.00 0.00 45 1010.6
20260508172031 56 200 1.0 10.0 0.00 0.00 0.00 45 1010.4
20260508171544 56 0 3.0 10.0 0.00 0.00 0.00 43 1010.3
20260508171029 56 259 2.0 8.0 0.00 0.00 0.00 45 1010.3
20260508170528 56 19 4.0 8.0 0.00 0.00 0.00 42 1010.1
20260508170041 56 293 2.0 7.0 0.00 0.00 0.00 43 1010.2
20260508165529 56 25 0.0 6.0 0.00 0.00 0.00 46 1010.2
20260508165029 56 276 2.0 9.0 0.00 0.00 0.00 44 1010.1
20260508164546 57 330 3.0 9.0 0.00 0.00 0.00 43 1010.1
20260508164031 57 260 4.0 9.0 0.00 0.00 0.00 42 1010.1
20260508163528 58 124 2.0 11.0 0.00 0.00 0.00 45 1010.2
20260508163047 58 340 4.0 11.0 0.00 0.00 0.00 51 1010.4
20260508162529 58 273 1.0 7.0 0.00 0.00 0.00 47 1010.3
20260508162028 58 236 1.0 7.0 0.00 0.00 0.00 45 1010.3
20260508161608 58 144 3.0 7.0 0.00 0.00 0.00 45 1010.2
20260508161030 58 295 2.0 7.0 0.00 0.00 0.00 45 1010.4
20260508160528 58 169 2.0 6.0 0.00 0.00 0.00 43 1010.4
20260508160059 57 271 3.0 7.0 0.00 0.00 0.00 51 1010.4
20260508155529 57 316 2.0 7.0 0.00 0.00 0.00 49 1010.6
20260508155029 57 170 2.0 8.0 0.00 0.00 0.00 47 1010.7
20260508154543 56 217 3.0 8.0 0.00 0.00 0.00 49 1010.7
20260508154030 56 286 3.0 8.0 0.00 0.00 0.00 51 1010.8
20260508153530 56 226 3.0 7.0 0.00 0.00 0.00 51 1011.0
20260508153045 55 136 2.0 6.0 0.00 0.00 0.00 51 1011.0
20260508152528 54 257 2.0 5.0 0.00 0.00 0.00 54 1011.1
20260508152029 54 147 1.0 9.0 0.00 0.00 0.00 52 1011.2
20260508151538 54 127 3.0 9.0 0.00 0.00 0.00 51 1011.1
20260508151030 54 307 4.0 7.0 0.00 0.00 0.00 55 1011.2
20260508150529 53 52 2.0 7.0 0.00 0.00 0.00 56 1011.2
20260508150042 54 27 0.0 8.0 0.00 0.00 0.00 53 1011.2
20260508145530 54 339 2.0 8.0 0.00 0.00 0.00 56 1011.2
20260508145034 53 307 2.0 5.0 0.00 0.00 0.00 54 1011.1
20260508144540 53 295 2.0 7.0 0.00 0.00 0.00 53 1011.3
20260508144029 53 333 3.0 12.0 0.00 0.00 0.00 57 1011.1
20260508143528 53 352 5.0 12.0 0.00 0.00 0.00 58 1011.2
20260508143055 53 322 6.0 12.0 0.00 0.00 0.00 55 1011.3
20260508142529 53 315 2.0 6.0 0.00 0.00 0.00 57 1011.4
20260508142029 52 360 3.0 9.0 0.00 0.00 0.00 58 1011.3
20260508141548 52 60 1.0 9.0 0.00 0.00 0.00 56 1011.4
20260508141028 53 4 3.0 9.0 0.00 0.00 0.00 56 1011.4
20260508140529 52 344 2.0 8.0 0.00 0.00 0.00 58 1011.4
20260508140041 52 0 1.0 8.0 0.00 0.00 0.00 57 1011.4
20260508135528 51 25 5.0 13.0 0.00 0.00 0.00 58 1011.4
20260508135029 51 267 5.0 13.0 0.00 0.00 0.00 58 1011.5
20260508134545 52 298 4.0 8.0 0.00 0.00 0.00 56 1011.6
20260508134028 52 189 2.0 11.0 0.00 0.00 0.00 56 1011.5
20260508133529 52 310 3.0 11.0 0.00 0.00 0.00 55 1011.6
20260508133053 52 13 4.0 10.0 0.00 0.00 0.00 56 1011.7
20260508132528 52 266 3.0 10.0 0.00 0.00 0.00 56 1011.7
20260508132031 52 299 5.0 9.0 0.00 0.00 0.00 56 1011.9
20260508131542 52 342 2.0 9.0 0.00 0.00 0.00 57 1011.9
20260508131029 51 333 3.0 9.0 0.00 0.00 0.00 56 1012.0
20260508130528 51 264 4.0 13.0 0.00 0.00 0.00 57 1012.2
20260508130045 50 349 4.0 13.0 0.00 0.00 0.00 56 1011.9
20260508125532 50 343 6.0 13.0 0.00 0.00 0.00 58 1012.1
20260508125028 50 304 3.0 10.0 0.00 0.00 0.00 57 1011.8
20260508124539 50 294 2.0 8.0 0.00 0.00 0.00 59 1011.8
20260508124028 49 326 3.0 8.0 0.00 0.00 0.00 58 1011.8
20260508123529 49 15 4.0 8.0 0.00 0.00 0.00 59 1011.8
20260508123044 48 288 2.0 11.0 0.00 0.00 0.00 60 1011.8